Flight Information

DEPARTURE
REDDING, CA
Elevation:
504
Runways:
16/34 - 7003x150 - ASPH-G
12/30 - 5067x150 - ASPH-G
ATIS:
124.1
Ground:
121.7
Tower:
REDDING TOWER 119.8
DESTINATION
,
Elevation:
TPA:
1000 (est.)


6837.7 NM68° True-17° Var51° HDG

Flight Plan:
(click to file on line)

1. Type
2. Aircraft Identification
3. Aircraft Type / Special Equipment
4. True Airspeed
kts
5. Departure Airport
(ICAO code)
6. Arriving Airport
(ICAO code)
7. Cruising Altitude
ft
8. Alternate Airport
(ICAO code)
9. Route of Flight
10. Remarks


00:00:00 Departure ATIS: Destination ATIS:

Clearance Limit:
Route:
Altitude: Expect in minutes
Frequency:
Transponder: (7500 Hijack / 7600 Lost Comms / 7700 Emergency)


KRDD 091353Z AUTO 33004KT 8SM CLR 02/01 A3015 RMK AO2 SLP212 I1001 T00170006
Time: 2022-12-09T13:53:00Z
1670651927
Winds: 330 @ 4 kts
Visibility: 8.0 sm
Clouds (AGL): CLR
Temperature: 1.7 C
Dew Point: 0.6 C
Pressure: 30.15059 in Hgbr


Notes:

Data extracted from FAA Digital Chart Supplement. Effective: 0901Z Thursday, 27 JAN 2022 to 0900z Thursday, 24 MAR 2022
Current ATIS data is provided courtisy of PilotEdge.